Regional Weather Roundup
Issued by NWS

Home | Current Version | Previous Version | Graphics & Text | Print | Product List | Glossary On
Versions: 1 2 3 4 5 6 7 8 9 10 11 12 13 14 15 16 17 18 19 20 21 22 23 24 25 26 27 28 29 30 31 32 33 34 35 36 37 38 39 40 41 42 43 44 45 46 47 48 49 50
000
ASUS43 KBIS 280202
RWRND

NORTH DAKOTA REGIONAL WEATHER ROUNDUP
NATIONAL WEATHER SERVICE BISMARCK ND
900 PM CDT MON JUL 27 2015

NOTE: "FAIR" INDICATES FEW OR NO CLOUDS BELOW 12,000 FEET WITH NO
SIGNIFICANT WEATHER AND/OR OBSTRUCTIONS TO VISIBILITY.


NDZ001>003-009>011-017-280300-
NORTHWEST NORTH DAKOTA

CITY           SKY/WX    TMP DP  RH WIND       PRES   REMARKS
WILLISTON      CLOUDY    87  65  47 SE14      29.50F
MINOT          MOCLDY    84  67  56 SE13      29.61F
MINOT AFB      MOCLDY    82  74  77 SE12      29.59F
$$

NDZ018>021-031>035-040>046-280300-
SOUTHWEST NORTH DAKOTA

CITY           SKY/WX    TMP DP  RH WIND       PRES   REMARKS
BISMARCK       CLOUDY    83  72  69 SE10      29.65S
DICKINSON      CLOUDY    79  64  60 SE13      29.60F
GARRISON         N/A     80  69  69 SE14      29.61F
HETTINGER ARPT TSTM      67  58  72 SE26G39   29.71R
$$

NDZ004>008-012>016-024-026-027-054-280300-
NORTHEAST NORTH DAKOTA

CITY           SKY/WX    TMP DP  RH WIND       PRES   REMARKS
GRAND FORKS    PTCLDY    82  72  71 SE10      29.73S
DEVILS LAKE    CLEAR     81  68  65 SE16      29.70S
$$

NDZ022-023-025-028>030-036>039-047>053-280300-
SOUTHEAST NORTH DAKOTA

CITY           SKY/WX    TMP DP  RH WIND       PRES   REMARKS
FARGO          CLEAR     83  71  67 SE14      29.75S
JAMESTOWN      PTCLDY    81  74  79 SE15G23   29.71S
$$



USA.gov is the U.S. government's official web portal to all federal, state and local government web resources and services.